Terminal Aerodrome Forecast
Issued by NWS Boston, MA

Home | Current Version | Previous Version | Text Only | Print | Product List | Glossary On
Versions: 1 2 3 4 5 6 7 8 9 10 11 12 13 14 15 16 17 18 19 20 21 22 23 24 25 26 27 28 29 30 31 32 33 34 35 36 37 38 39 40 41 42 43 44 45 46 47 48 49
000
FTUS41 KBOX 281139
TAFBOS
TAF
KBOS 281139Z 2812/2918 30013KT P6SM SCT025 OVC040
     FM281400 32012KT P6SM BKN040
     FM281900 33010KT P6SM SCT090
     FM291000 32006KT P6SM SKC
     FM291500 00000KT P6SM FEW200=

USA.gov is the U.S. government's official web portal to all federal, state and local government web resources and services.